Weather Roundup
Issued by NWS Springfield, MO

Home | Current Version | Previous Version | Text Only | Print | Product List | Glossary On
Versions: 1 2 3 4 5 6 7 8 9 10 11 12 13 14 15 16 17 18 19 20 21 22 23 24 25 26 27 28 29 30 31 32 33 34 35 36 37 38 39 40 41 42 43 44 45 46 47 48 49 50
000
NZUS99 KSGF 280607
HRRSGF

HOURLY WEATHER
NATIONAL WEATHER SERVICE SPRINGFIELD MO
100 AM CDT THU MAY 28 2015

......SGF CWA......

CITY           SKY/WX    TMP DP  RH WIND       PRES   REMARKS
SPRINGFIELD    MOCLDY    71  64  78 E3        30.12R
6HR MIN TEMP:  68; 6HR MAX TEMP:  81;

JOPLIN         MOCLDY    69  65  86 S6        30.10R
6HR MIN TEMP:  69; 6HR MAX TEMP:  81;

WEST PLAINS    CLOUDY    69  65  86 CALM      30.15F
6HR MIN TEMP:  69; 6HR MAX TEMP:  76; 6HR PCP:  1.36;

ROLLA          MOCLDY    65  58  78 E7        30.14R
6HR MIN TEMP:  63; 6HR MAX TEMP:  78;

OSAGE BEACH    MOCLDY    63  57  82 CALM      30.14R
BRANSON        CLOUDY    66  64  94 CALM      30.15R

......SURROUNDING SGF CWA......

CITY           SKY/WX    TMP DP  RH WIND       PRES   REMARKS
CHANUTE        CLOUDY    70  62  76 E6        30.08R
PARSONS        CLOUDY    69  67  93 CALM      30.09R
COFFEYVILLE    CLOUDY    70  66  87 S5        30.07R
EMPORIA        CLOUDY    67  62  84 SE8       30.08S
GROVE OK       MOCLDY    68  68 100 CALM      30.10S
ROGERS AR      MOCLDY    66  64  93 SE3       30.14R
SILOAM SPRINGS MOCLDY    66  59  77 E5        30.13R
HARRISON AR    CLOUDY    65  64  97 SE5       30.14R
NEAR YELLVILLE CLOUDY    68  66  94 CALM      30.11R

......KANSAS AND MISSOURI......

CITY           SKY/WX    TMP DP  RH WIND       PRES   REMARKS
KANSAS CTY INT MOCLDY    69  55  60 SE8       30.09S
DOWNTOWN KC    MOCLDY    67  56  67 E6        30.09R
COLUMBIA       CLOUDY    65  58  78 E7        30.14R
SEDALIA        CLOUDY    66  57  72 SE5       30.14R
ST JOSEPH      MOCLDY    62  58  86 N3        30.09S
ST LOUIS       PTCLDY    69  57  65 CALM      30.15R
SPIRIT OF STL  PTCLDY    62  60  93 CALM      30.14R
KIRKSVILLE     PTCLDY    59  57  93 SE3       30.16R
WICHITA        CLOUDY    72  67  84 S7        30.07S
TOPEKA         CLOUDY    66  59  78 CALM      30.09R
OLATHE         CLOUDY    67  56  67 SE6       30.10R

......TENNESSEE......

CITY           SKY/WX    TMP DP  RH WIND       PRES   REMARKS
MEMPHIS        CLOUDY    70  65  84 S8        30.15R
NASHVILLE      CLOUDY    67  65  93 S3        30.16F

......ARKANSAS.......

CITY           SKY/WX    TMP DP  RH WIND       PRES   REMARKS
FAYETTEVILLE   MOCLDY    63  63 100 E3        30.12R
FT SMITH       MOCLDY    70  67  90 NE6       30.08R
LITTLE ROCK    PTCLDY    72  68  87 SE3       30.11S

......OKLAHOMA.......

CITY           SKY/WX    TMP DP  RH WIND       PRES   REMARKS
TULSA          CLOUDY    72  63  73 S7        30.06S
PONCA CITY     CLOUDY    74  66  76 S7        30.05F THUNDER
MCALESTER      MOCLDY    69  66  90 E5        30.06F
OKLAHOMA CITY  CLOUDY    68  62  81 S3        30.06S

......IOWA............

CITY           SKY/WX    TMP DP  RH WIND       PRES   REMARKS
DES MOINES     MOCLDY    67  58  72 S7        30.11R
QUAD CITIES    CLEAR     62  57  83 CALM      30.14R

......ILLINOIS........

CITY           SKY/WX    TMP DP  RH WIND       PRES   REMARKS
QUINCY         CLEAR     66  56  70 SE6       30.15R
CHICAGO        CLEAR     60  54  80 S6        30.14R




USA.gov is the U.S. government's official web portal to all federal, state and local government web resources and services.